Location: ?????????
(54.7630°N, 39.4991°E)
Time: 20:18:35
(UTC+00:00)

CZ-4B R/B - Pass Details

Date: 14 April 2026
Orbit: 462 x 561 km, 97.8° (Epoch: 16 May)

Event Time Altitude Azimuth Distance (km) Brightness Sun altitude
Rises 16:56:02 0° 165° (SSE) 2,558 6.8 -5.2°
Reaches altitude 10° 16:58:04 10° 167° (SSE) 1,697 6.0 -5.4°
Maximum altitude 17:01:43 83° 256° (WSW) 521 3.8 -5.9°
Drops below altitude 10° 17:05:33 10° 344° (NNW) 1,771 7.1 -6.4°
Sets 17:07:42 0° 345° (NNW) 2,683 8.0 -6.7°
